Voltar ao catálogo

STARLINK-1222

AtivoComunicaçõesVLEO
NORAD 45228·PAYLOAD·🇺🇸 United States

Lançado Feb 17, 2020 de Cape Canaveral Space Force Station

Loading…

Próximas Passagens (próximas 24 horas)

TLE

AtualizadoSource: CelesTrak SupGP

Época: Sep 14, 2026, 13:05 UTC

1 45228C 20012BC  26257.54562500  .00080053  00000+0  83084-3 0  2573
2 45228  53.0482 148.2189 0003906 112.6910 122.0785 15.63948687    19

Acompanhe STARLINK-1222 em tempo real com AllMySat

Download on the App Store